Location: Newark
(41.6500°N, 71.4833°W)
Time: 11:36:25
(UTC+00:00)

deb Explorer IX - Pass Details

Date: 29 January 2020
Orbit: 549 x 1099 km, 38.8° (Epoch: 22 February)

Event Time Altitude Azimuth Distance (km) Brightness Sun altitude
Rises 01:04:37 0° 235° (SW) 3,538 ? -35.2°
Reaches altitude 10° 01:07:11 10° 230° (SW) 2,674 ? -35.7°
Enters shadow 01:10:13 28° 215° (SW) 1,770 ? -36.3°
Maximum altitude 01:13:26 48° 158° (SSE) 1,328 - -36.9°
Drops below altitude 10° 01:20:17 10° 87° (E) 2,930 - -38.1°
Sets 01:23:12 0° 82° (E) 3,906 - -38.7°
